Edwards AFB North Base, CA

6:51 AM PST on November 17, 2019 (GMT -0800)
Edwards AFB North Base

Weather History for K9L2 - September, 2019

Change the Weather History Date:

Friday, September 20, 2019

  Actual Average (KEDW) Record (KEDW)
Temperature  
Mean Temperature 62 °F -  
Max Temperature 81 °F 88 °F 104 °F (2000)
Min Temperature 45 °F 54 °F 48 °F (1997)
Degree Days  
Heating Degree Days 2    
Growing Degree Days 12 (Base 50)    
Moisture  
Dew Point 34 °F    
Average Humidity 36    
Maximum Humidity 58    
Minimum Humidity 15    
Precipitation  
Precipitation 0.00 in - - ()
Sea Level Pressure  
Sea Level Pressure 29.89 in    
Wind  
Wind Speed 2 mph ()    
Max Wind Speed 8 mph    
Max Gust Speed -    
Visibility 9.0 miles    
Events      
Averages and records for this station are not official NWS values.
T = Trace of Precipitation, MM = Missing Value Source: Averaged Metar Reports

Daily Weather History Graph

Daily Weather History Graph

Search for Another Location

Airport or City:

Astronomy

Sep. 20, 2019 Rise Set
Actual Time 6:37 AM PDT 6:51 PM PDT
Civil Twilight 6:12 AM PDT 7:16 PM PDT
Nautical Twilight 5:43 AM PDT 7:46 PM PDT
Astronomical Twilight 5:13 AM PDT 8:15 PM PDT
Moon 10:58 PM PDT (9/20) 12:34 PM PDT (9/20)
Length of Visible Light 13h 03m
Length of Day
12h 13m
Waning Gibbous, 64% of the Moon is Illuminated
Sep 20
Waning Gibbous
Sep 21
Last Quarter
Sep 28
New
Oct 5
First Quarter
Oct 13
Full

Hourly Weather History & Observations

Time (PDT) Temp. Dew Point Humidity Pressure Visibility Wind Dir Wind Speed Gust Speed Precip Events Conditions
12:58 AM 55.6 °F 35.1 °F 46% 29.84 in 10.0 mi Calm Calm - N/A   Clear
1:58 AM 55.0 °F 37.6 °F 52% 29.86 in 10.0 mi SSW 3.5 mph - N/A   Clear
2:58 AM 52.9 °F 37.4 °F 56% 29.84 in 10.0 mi West 3.5 mph - N/A   Clear
3:58 AM 50.2 °F 33.6 °F 53% 29.86 in 10.0 mi Calm Calm - N/A   Clear
4:58 AM 49.1 °F 31.8 °F 51% 29.88 in 10.0 mi Calm Calm - N/A   Clear
5:58 AM 47.5 °F 32.5 °F 56% 29.90 in 10.0 mi SSE 3.5 mph - N/A   Clear
6:58 AM 45.7 °F 31.8 °F 58% 29.93 in 10.0 mi Calm Calm - N/A   Clear
7:58 AM 51.6 °F 36.1 °F 56% 29.93 in 10.0 mi Calm Calm - N/A   Clear
8:58 AM 57.2 °F 37.4 °F 48% 29.94 in 9.0 mi Calm Calm - N/A   Clear
9:58 AM 63.1 °F 39.2 °F 41% 29.94 in 9.0 mi SSE 3.5 mph - N/A   Clear
10:58 AM 70.3 °F 38.3 °F 31% 29.94 in 8.0 mi NE 4.6 mph - N/A   Clear
11:58 AM 74.5 °F 34.2 °F 23% 29.93 in 9.0 mi Calm Calm - N/A   Clear
12:58 PM 77.2 °F 33.8 °F 21% 29.91 in 9.0 mi Calm Calm - N/A   Clear
1:58 PM 78.8 °F 31.8 °F 18% 29.88 in 7.0 mi ESE 5.8 mph - N/A   Clear
2:58 PM 79.9 °F 30.0 °F 16% 29.87 in 7.0 mi SE 4.6 mph - N/A   Clear
3:58 PM 80.6 °F 29.8 °F 16% 29.86 in 7.0 mi SE 6.9 mph - N/A   Clear
4:58 PM 80.4 °F 28.4 °F 15% 29.85 in 7.0 mi Calm Calm - N/A   Clear
5:58 PM 79.2 °F 29.1 °F 16% 29.84 in 7.0 mi South 3.5 mph - N/A   Clear
6:58 PM 75.9 °F 28.0 °F 17% 29.85 in 8.0 mi South 3.5 mph - N/A   Clear
7:58 PM 71.8 °F 36.1 °F 27% 29.86 in 9.0 mi WSW 8.1 mph - N/A   Clear
8:58 PM 68.0 °F 36.3 °F 31% 29.87 in 9.0 mi West 6.9 mph - N/A   Clear
9:58 PM 65.3 °F 36.7 °F 35% 29.89 in 10.0 mi West 6.9 mph - N/A   Clear
10:58 PM 62.8 °F 34.7 °F 35% 29.90 in 10.0 mi SSW 4.6 mph - N/A   Clear
11:58 PM 58.3 °F 32.7 °F 38% 29.91 in 10.0 mi SSE 5.8 mph - N/A   Clear